星链-2288 (STARLINK-2288 )

导读 | 豆包AI

STARLINK-2288是美国SpaceX公司星链星座中的一颗近地轨道卫星,于2021年3月24日发射升空,属于星链网络的第二代组网卫星。星链项目旨在构建全球覆盖的卫星互联网星座,为全球提供高速低延迟的宽带网络服务,该卫星入轨后承担网络覆盖与通信中继任务,提升了星链系统在全球范围的服务能力,是SpaceX推进大规模卫星星座建设的组成部分。

Basic Information
目录编号:
48034
目录名称:
STARLINK-2288
国际标识:
2021-024BK
轨道中心:
EARTH
卫星名称:
星链-2288
卫星全名:
星链-2288 (STARLINK-2288 )
卫星状态:
已陨落 最后检测时间 2025-04-22
发射日期:
2021-03-24 UTC
国别 :
美国 (US)
星等 :
--
Orbit Information
数据来源 国际轨道数据
星历时间: 2025-04-22T19:37:35+0800
轨道信息已过期326天
半长轴: 6547.337km
偏心率: 0.0007779
轨道倾角: 53.034°
近地点辐角 273.729°
升交点赤经 308.609°
平近点角 177.692°
近地点: 164.108km
远地点: 174.296km
周期: 87.873分钟
每日圈数: 16.387238
Detailed Information
固有亮度:
5
最大亮度:
2.5
卫星平台:
Starlink V1.0
覆盖范围:
全球
运营商:
太空探索技术公司
运营商所在国:
美国
制造商(研发单位):
太空探索技术公司
制造商所在国:
美国
使用方式:
暂无
Satellite Introduction
星链(Starlink)计划是由太空探索技术公司(SpaceX)提出的一个巨型低轨卫星互联网星座项目,计划在2019年至2024年间在太空搭建由约1.2万颗卫星组成的“星链”网络,其中1584颗将部署在地球上空550千米处的近地轨道,并从2020年开始工作。该卫星仍在工作。